Regional Weather Roundup
Issued by NWS New Orleans/Baton Rouge, LA

Home | Current Version | Previous Version | Text Only | Print | Product List | Glossary On
Versions: 1 2 3 4 5 6 7 8 9 10 11 12 13 14 15 16 17 18 19 20 21 22 23 24 25 26 27 28 29 30 31 32 33 34 35 36 37 38 39 40 41 42 43 44 45 46 47 48 49 50
982
ASUS44 KLIX 281510
RWRLIX
NEW ORLEANS REGIONAL WEATHER ROUNDUP
NATIONAL WEATHER SERVICE NEW ORLEANS LA
1000 AM CDT MON JUL 28 2014

NOTE: "FAIR" INDICATES FEW OR NO CLOUDS BELOW 12,000 FEET WITH NO
      SIGNIFICANT WEATHER AND/OR OBSTRUCTIONS TO VISIBILITY.
      SKY/WX - SKY CONDITION AND SIGNIFICANT WEATHER.
      TMP - AIR TEMPERATURE.     DP    - DEWPOINT TEMPERATURE.
      RH  - RELATIVE HUMIDITY.   PRES  - PRESSURE.
      HI  - HEAT INDEX.          WCI   - WIND CHILL INDEX.

*  THESE STATIONS ARE NOT NWS OR FAA STATIONS AND ARE NOT UNDER
   NWS QUALITY CONTROL.

LAZ038-040-048-061>063-065>067-069-281600-
SOUTHEAST LOUISIANA

CITY           SKY/WX    TMP DP  RH WIND       PRES   REMARKS
N.O. AUDUBON     N/A     90  77  64 MISG        N/A  HX 103
N.O. INTL ARPT MOSUNNY   88  76  67 W15       30.09F HX  99
N.O. LAKEFRONT MOSUNNY   85  77  77 W18       30.09F HX  95
N.O. DOWNTOWN*   N/A     88  72  58 W5        30.10S
SLIDELL        SUNNY     88  76  67 W7        30.08S HX  99
BATON ROUGE    MOSUNNY   86  76  71 W9        30.10S HX  96
BOOTHVILLE     MOSUNNY   87  76  69 W14G21    30.10F HX  97
BELLE CHASSE   PTSUNNY   87  74  64 W9G18     30.09S HX  95
BOGALUSA*        N/A     88  76  67 NW6       30.09S HX  98
GALLIANO*      NOT AVBL
NEW ROADS*       N/A     83  76  78 W7        30.11S
GONZALES*        N/A     86  78  77 W7        30.10S HX  98
HAMMOND*       MOSUNNY   88  73  62 W12G17    30.11S HX  96
HOUMA*         MOSUNNY   90  73  58 W12       30.11S HX  98
PORT FOURCHON* MOSUNNY   86  77  74 NW14      30.13S HX  97

$$

MSZ070-080>082-281600-
SOUTHERN MISSISSIPPI

CITY           SKY/WX    TMP DP  RH WIND       PRES   REMARKS
MCCOMB         PTSUNNY   85  76  74 NW12      30.09F
GULFPORT       SUNNY     91  76  61 W9        30.06S HX 103
BILOXI         MOSUNNY   88  77  69 VRB2      30.07S HX 100
PASCAGOULA     SUNNY     88  76  67 NW8       30.06S HX  99
STENNIS ARPT*  MOSUNNY  N/A N/A N/A NW12G17   30.08

$$

COASTAL OBSERVATIONS
LAKE AND NEARSHORE STATIONS

STATION/POSITION TIME  TEMP    WIND        PRES    WAVE
                       AIR SEA DIR/SP/G            HT/PER
                 (UTC) (F)     (DEG/KT/KT) (MB)    (FT/S)
PASCAGOULA       1500   87     280/  9/ 12 1017.5
WAVELAND YACHT   1500   84     320/  9/ 13 1017.7
GRAND ISLE       1500   84 86  300/ 10/ 14 1020.2
SOUTHWEST PASS   1500   85 84  310/ 15/ 18 1019.9
NEW CANAL        1500   85 84  280/  8/ 13 1019.5
SHELL BEACH      1500   84 82  290/ 14/ 18 1018.8

OFFSHORE STATIONS

STATION/POSITION TIME  TEMP    WIND        PRES    WAVE
                       AIR SEA DIR/SP/G            HT/PER
                 (UTC) (F)     (DEG/KT/KT) (MB)    (FT/S)
64 S DAUPHIN ISL 1410   84 86  300/ 17/ 21 1019.1

$$




USA.gov is the U.S. government's official web portal to all federal, state and local government web resources and services.